#datetime,building,power
2023-07-17T00:00:00,axn,27.81
2023-07-17T00:01:00,axn,27.78
2023-07-17T00:02:00,axn,27.89
2023-07-17T00:03:00,axn,28.45
2023-07-17T00:04:00,axn,28.00
2023-07-17T00:05:00,axn,27.41
2023-07-17T00:06:00,axn,27.46
2023-07-17T00:07:00,axn,27.57
2023-07-17T00:08:00,axn,28.03
2023-07-17T00:09:00,axn,27.73
2023-07-17T00:10:00,axn,27.62
2023-07-17T00:11:00,axn,27.62
2023-07-17T00:12:00,axn,27.35
2023-07-17T00:13:00,axn,27.44
2023-07-17T00:14:00,axn,27.32
2023-07-17T00:15:00,axn,27.24
2023-07-17T00:16:00,axn,27.51
2023-07-17T00:17:00,axn,27.60
2023-07-17T00:18:00,axn,27.42
2023-07-17T00:19:00,axn,34.05
2023-07-17T00:20:00,axn,31.11
2023-07-17T00:21:00,axn,31.43
2023-07-17T00:22:00,axn,28.14
2023-07-17T00:23:00,axn,28.30
2023-07-17T00:24:00,axn,28.68
2023-07-17T00:25:00,axn,28.46
2023-07-17T00:26:00,axn,28.41
2023-07-17T00:27:00,axn,28.23
2023-07-17T00:28:00,axn,28.69
2023-07-17T00:29:00,axn,28.49
2023-07-17T00:30:00,axn,28.55
2023-07-17T00:31:00,axn,29.23
2023-07-17T00:32:00,axn,28.75
2023-07-17T00:33:00,axn,28.84
2023-07-17T00:34:00,axn,28.76
2023-07-17T00:35:00,axn,28.82
2023-07-17T00:36:00,axn,28.96
2023-07-17T00:37:00,axn,28.80
2023-07-17T00:38:00,axn,29.32
2023-07-17T00:39:00,axn,28.88
2023-07-17T00:40:00,axn,28.77
2023-07-17T00:41:00,axn,28.84
2023-07-17T00:42:00,axn,28.86
2023-07-17T00:43:00,axn,28.76
2023-07-17T00:44:00,axn,28.97
2023-07-17T00:45:00,axn,28.88
2023-07-17T00:46:00,axn,28.98
2023-07-17T00:47:00,axn,28.82
2023-07-17T00:48:00,axn,28.90
2023-07-17T00:49:00,axn,28.83
2023-07-17T00:50:00,axn,28.82
2023-07-17T00:51:00,axn,34.11
2023-07-17T00:52:00,axn,29.20
2023-07-17T00:53:00,axn,29.11
2023-07-17T00:54:00,axn,29.02
2023-07-17T00:55:00,axn,28.99
2023-07-17T00:56:00,axn,28.89
2023-07-17T00:57:00,axn,29.07
2023-07-17T00:58:00,axn,29.24
2023-07-17T00:59:00,axn,28.57
2023-07-17T01:00:00,axn,28.54
2023-07-17T01:01:00,axn,28.68
2023-07-17T01:02:00,axn,28.11
2023-07-17T01:03:00,axn,28.38
2023-07-17T01:04:00,axn,28.31
2023-07-17T01:05:00,axn,28.29
2023-07-17T01:06:00,axn,28.39
2023-07-17T01:07:00,axn,28.31
2023-07-17T01:08:00,axn,28.67
2023-07-17T01:09:00,axn,28.19
2023-07-17T01:10:00,axn,28.22
2023-07-17T01:11:00,axn,28.25
2023-07-17T01:12:00,axn,28.94
2023-07-17T01:13:00,axn,28.44
2023-07-17T01:14:00,axn,28.32
2023-07-17T01:15:00,axn,27.97
2023-07-17T01:16:00,axn,28.05
2023-07-17T01:17:00,axn,28.33
2023-07-17T01:18:00,axn,28.08
2023-07-17T01:19:00,axn,28.27
2023-07-17T01:20:00,axn,28.08
2023-07-17T01:21:00,axn,28.12
2023-07-17T01:22:00,axn,28.22
2023-07-17T01:23:00,axn,28.33
2023-07-17T01:24:00,axn,28.26
2023-07-17T01:25:00,axn,28.90
2023-07-17T01:26:00,axn,28.23
2023-07-17T01:27:00,axn,28.15
2023-07-17T01:28:00,axn,28.19
2023-07-17T01:29:00,axn,28.75
2023-07-17T01:30:00,axn,28.51
2023-07-17T01:31:00,axn,28.49
2023-07-17T01:32:00,axn,28.47
2023-07-17T01:33:00,axn,28.55
2023-07-17T01:34:00,axn,28.48
2023-07-17T01:35:00,axn,28.52
2023-07-17T01:36:00,axn,28.43
2023-07-17T01:37:00,axn,28.44
2023-07-17T01:38:00,axn,28.70
2023-07-17T01:39:00,axn,28.71
2023-07-17T01:40:00,axn,28.79
2023-07-17T01:41:00,axn,28.84
2023-07-17T01:42:00,axn,28.74
2023-07-17T01:43:00,axn,28.86
2023-07-17T01:44:00,axn,28.66
2023-07-17T01:45:00,axn,33.12
2023-07-17T01:46:00,axn,33.09
2023-07-17T01:47:00,axn,30.07
2023-07-17T01:48:00,axn,28.47
2023-07-17T01:49:00,axn,28.72
2023-07-17T01:50:00,axn,28.58
2023-07-17T01:51:00,axn,28.84
2023-07-17T01:52:00,axn,28.84
2023-07-17T01:53:00,axn,28.63
2023-07-17T01:54:00,axn,28.76
2023-07-17T01:55:00,axn,28.65
2023-07-17T01:56:00,axn,28.39
2023-07-17T01:57:00,axn,28.70
2023-07-17T01:58:00,axn,28.89
2023-07-17T01:59:00,axn,29.26
2023-07-17T02:00:00,axn,28.87
2023-07-17T02:01:00,axn,29.24
2023-07-17T02:02:00,axn,28.91
2023-07-17T02:03:00,axn,29.00
2023-07-17T02:04:00,axn,28.42
2023-07-17T02:05:00,axn,28.48
2023-07-17T02:06:00,axn,28.42
2023-07-17T02:07:00,axn,28.27
2023-07-17T02:08:00,axn,28.24
2023-07-17T02:09:00,axn,28.23
2023-07-17T02:10:00,axn,28.45
2023-07-17T02:11:00,axn,28.38
2023-07-17T02:12:00,axn,28.50
2023-07-17T02:13:00,axn,28.55
2023-07-17T02:14:00,axn,28.23
2023-07-17T02:15:00,axn,28.10
2023-07-17T02:16:00,axn,28.25
2023-07-17T02:17:00,axn,28.31
2023-07-17T02:18:00,axn,28.45
2023-07-17T02:19:00,axn,28.12
2023-07-17T02:20:00,axn,27.99
2023-07-17T02:21:00,axn,28.23
2023-07-17T02:22:00,axn,28.24
2023-07-17T02:23:00,axn,28.31
2023-07-17T02:24:00,axn,28.32
2023-07-17T02:25:00,axn,28.37
2023-07-17T02:26:00,axn,28.32
2023-07-17T02:27:00,axn,28.23
2023-07-17T02:28:00,axn,28.29
2023-07-17T02:29:00,axn,28.21
2023-07-17T02:30:00,axn,28.31
2023-07-17T02:31:00,axn,28.32
2023-07-17T02:32:00,axn,28.45
2023-07-17T02:33:00,axn,28.59
2023-07-17T02:34:00,axn,28.92
2023-07-17T02:35:00,axn,28.99
2023-07-17T02:36:00,axn,28.58
2023-07-17T02:37:00,axn,28.45
2023-07-17T02:38:00,axn,28.42
2023-07-17T02:39:00,axn,28.38
2023-07-17T02:40:00,axn,31.79
2023-07-17T02:41:00,axn,31.13
2023-07-17T02:42:00,axn,28.84
2023-07-17T02:43:00,axn,28.51
2023-07-17T02:44:00,axn,29.10
2023-07-17T02:45:00,axn,28.63
2023-07-17T02:46:00,axn,28.68
2023-07-17T02:47:00,axn,28.62
2023-07-17T02:48:00,axn,28.59
2023-07-17T02:49:00,axn,27.87
2023-07-17T02:50:00,axn,27.75
2023-07-17T02:51:00,axn,27.71
2023-07-17T02:52:00,axn,27.60
2023-07-17T02:53:00,axn,27.48
2023-07-17T02:54:00,axn,27.86
2023-07-17T02:55:00,axn,27.83
2023-07-17T02:56:00,axn,28.33
2023-07-17T02:57:00,axn,27.88
2023-07-17T02:58:00,axn,27.86
2023-07-17T02:59:00,axn,28.05
2023-07-17T03:00:00,axn,28.36
2023-07-17T03:01:00,axn,28.15
2023-07-17T03:02:00,axn,28.14
2023-07-17T03:03:00,axn,28.14
2023-07-17T03:04:00,axn,28.01
2023-07-17T03:05:00,axn,28.06
2023-07-17T03:06:00,axn,28.28
2023-07-17T03:07:00,axn,28.39
2023-07-17T03:08:00,axn,28.36
2023-07-17T03:09:00,axn,28.65
2023-07-17T03:10:00,axn,28.24
2023-07-17T03:11:00,axn,28.12
2023-07-17T03:12:00,axn,28.12
2023-07-17T03:13:00,axn,28.07
2023-07-17T03:14:00,axn,27.92
2023-07-17T03:15:00,axn,28.47
2023-07-17T03:16:00,axn,27.97
2023-07-17T03:17:00,axn,28.10
2023-07-17T03:18:00,axn,28.15
2023-07-17T03:19:00,axn,28.20
2023-07-17T03:20:00,axn,28.13
2023-07-17T03:21:00,axn,28.07
2023-07-17T03:22:00,axn,28.01
2023-07-17T03:23:00,axn,28.08
2023-07-17T03:24:00,axn,27.92
2023-07-17T03:25:00,axn,28.09
2023-07-17T03:26:00,axn,28.08
2023-07-17T03:27:00,axn,28.02
2023-07-17T03:28:00,axn,28.30
2023-07-17T03:29:00,axn,28.12
2023-07-17T03:30:00,axn,28.02
2023-07-17T03:31:00,axn,27.95
2023-07-17T03:32:00,axn,28.00
2023-07-17T03:33:00,axn,28.11
2023-07-17T03:34:00,axn,28.35
2023-07-17T03:35:00,axn,28.31
2023-07-17T03:36:00,axn,28.47
2023-07-17T03:37:00,axn,28.67
2023-07-17T03:38:00,axn,28.25
2023-07-17T03:39:00,axn,28.17
2023-07-17T03:40:00,axn,28.19
2023-07-17T03:41:00,axn,28.17
2023-07-17T03:42:00,axn,28.53
2023-07-17T03:43:00,axn,28.47
2023-07-17T03:44:00,axn,28.40
2023-07-17T03:45:00,axn,28.64
2023-07-17T03:46:00,axn,28.57
2023-07-17T03:47:00,axn,28.58
2023-07-17T03:48:00,axn,28.41
2023-07-17T03:49:00,axn,28.21
2023-07-17T03:50:00,axn,28.30
2023-07-17T03:51:00,axn,28.31
2023-07-17T03:52:00,axn,28.32
2023-07-17T03:53:00,axn,28.28
2023-07-17T03:54:00,axn,28.01
2023-07-17T03:55:00,axn,27.92
2023-07-17T03:56:00,axn,28.24
2023-07-17T03:57:00,axn,27.85
2023-07-17T03:58:00,axn,27.87
2023-07-17T03:59:00,axn,27.96
2023-07-17T04:00:00,axn,27.95
2023-07-17T04:01:00,axn,27.96
2023-07-17T04:02:00,axn,27.85
2023-07-17T04:03:00,axn,28.19
2023-07-17T04:04:00,axn,27.91
2023-07-17T04:05:00,axn,30.68
2023-07-17T04:06:00,axn,30.65
2023-07-17T04:07:00,axn,30.67
2023-07-17T04:08:00,axn,27.87
2023-07-17T04:09:00,axn,27.81
2023-07-17T04:10:00,axn,28.10
2023-07-17T04:11:00,axn,28.04
2023-07-17T04:12:00,axn,28.10
2023-07-17T04:13:00,axn,28.12
2023-07-17T04:14:00,axn,28.34
2023-07-17T04:15:00,axn,28.40
2023-07-17T04:16:00,axn,28.70
2023-07-17T04:17:00,axn,28.31
2023-07-17T04:18:00,axn,30.46
2023-07-17T04:19:00,axn,30.78
2023-07-17T04:20:00,axn,30.40
2023-07-17T04:21:00,axn,31.05
2023-07-17T04:22:00,axn,31.12
2023-07-17T04:23:00,axn,45.76
2023-07-17T04:24:00,axn,46.11
2023-07-17T04:25:00,axn,45.69
2023-07-17T04:26:00,axn,45.39
2023-07-17T04:27:00,axn,51.48
2023-07-17T04:28:00,axn,51.68
2023-07-17T04:29:00,axn,37.29
2023-07-17T04:30:00,axn,37.48
2023-07-17T04:31:00,axn,31.58
2023-07-17T04:32:00,axn,31.62
2023-07-17T04:33:00,axn,31.57
2023-07-17T04:34:00,axn,31.38
2023-07-17T04:35:00,axn,31.63
2023-07-17T04:36:00,axn,31.68
2023-07-17T04:37:00,axn,31.36
2023-07-17T04:38:00,axn,31.45
2023-07-17T04:39:00,axn,31.25
2023-07-17T04:40:00,axn,31.26
2023-07-17T04:41:00,axn,31.18
2023-07-17T04:42:00,axn,31.10
2023-07-17T04:43:00,axn,32.23
2023-07-17T04:44:00,axn,32.29
2023-07-17T04:45:00,axn,30.82
2023-07-17T04:46:00,axn,31.35
2023-07-17T04:47:00,axn,31.47
2023-07-17T04:48:00,axn,30.80
2023-07-17T04:49:00,axn,30.79
2023-07-17T04:50:00,axn,30.57
2023-07-17T04:51:00,axn,28.70
2023-07-17T04:52:00,axn,44.55
2023-07-17T04:53:00,axn,28.46
2023-07-17T04:54:00,axn,29.27
2023-07-17T04:55:00,axn,29.12
2023-07-17T04:56:00,axn,29.49
2023-07-17T04:57:00,axn,29.65
2023-07-17T04:58:00,axn,29.83
2023-07-17T04:59:00,axn,29.57
2023-07-17T05:00:00,axn,29.55
2023-07-17T05:01:00,axn,45.07
2023-07-17T05:02:00,axn,27.43
2023-07-17T05:03:00,axn,27.85
2023-07-17T05:04:00,axn,44.72
2023-07-17T05:05:00,axn,27.67
2023-07-17T05:06:00,axn,27.56
2023-07-17T05:07:00,axn,26.95
2023-07-17T05:08:00,axn,27.57
2023-07-17T05:09:00,axn,27.98
2023-07-17T05:10:00,axn,27.70
2023-07-17T05:11:00,axn,27.64
2023-07-17T05:12:00,axn,27.92
2023-07-17T05:13:00,axn,27.46
2023-07-17T05:14:00,axn,27.91
2023-07-17T05:15:00,axn,27.83
2023-07-17T05:16:00,axn,27.24
2023-07-17T05:17:00,axn,43.71
2023-07-17T05:18:00,axn,27.26
2023-07-17T05:19:00,axn,27.31
2023-07-17T05:20:00,axn,27.23
2023-07-17T05:21:00,axn,26.93
2023-07-17T05:22:00,axn,27.46
2023-07-17T05:23:00,axn,27.28
2023-07-17T05:24:00,axn,27.45
2023-07-17T05:25:00,axn,27.33
2023-07-17T05:26:00,axn,27.95
2023-07-17T05:27:00,axn,27.55
2023-07-17T05:28:00,axn,27.44
2023-07-17T05:29:00,axn,27.38
2023-07-17T05:30:00,axn,27.47
2023-07-17T05:31:00,axn,29.61
2023-07-17T05:32:00,axn,30.16
2023-07-17T05:33:00,axn,30.73
2023-07-17T05:34:00,axn,30.65
2023-07-17T05:35:00,axn,30.38
2023-07-17T05:36:00,axn,30.46
2023-07-17T05:37:00,axn,30.28
2023-07-17T05:38:00,axn,30.26
2023-07-17T05:39:00,axn,30.73
2023-07-17T05:40:00,axn,30.43
2023-07-17T05:41:00,axn,30.45
2023-07-17T05:42:00,axn,30.35
2023-07-17T05:43:00,axn,30.43
2023-07-17T05:44:00,axn,30.29
2023-07-17T05:45:00,axn,30.29
2023-07-17T05:46:00,axn,30.33
2023-07-17T05:47:00,axn,30.58
2023-07-17T05:48:00,axn,30.11
2023-07-17T05:49:00,axn,30.11
2023-07-17T05:50:00,axn,29.96
2023-07-17T05:51:00,axn,29.81
2023-07-17T05:52:00,axn,30.34
2023-07-17T05:53:00,axn,30.08
2023-07-17T05:54:00,axn,30.34
2023-07-17T05:55:00,axn,29.93
2023-07-17T05:56:00,axn,29.96
2023-07-17T05:57:00,axn,30.32
2023-07-17T05:58:00,axn,35.20
2023-07-17T05:59:00,axn,29.84
2023-07-17T06:00:00,axn,29.61
2023-07-17T06:01:00,axn,29.59
2023-07-17T06:02:00,axn,29.69
2023-07-17T06:03:00,axn,29.70
2023-07-17T06:04:00,axn,30.12
2023-07-17T06:05:00,axn,29.79
2023-07-17T06:06:00,axn,29.41
2023-07-17T06:07:00,axn,29.38
2023-07-17T06:08:00,axn,29.24
2023-07-17T06:09:00,axn,29.25
2023-07-17T06:10:00,axn,29.41
2023-07-17T06:11:00,axn,29.40
2023-07-17T06:12:00,axn,29.26
2023-07-17T06:13:00,axn,29.26
2023-07-17T06:14:00,axn,29.35
2023-07-17T06:15:00,axn,29.35
2023-07-17T06:16:00,axn,29.39
2023-07-17T06:17:00,axn,29.37
2023-07-17T06:18:00,axn,29.29
2023-07-17T06:19:00,axn,29.43
2023-07-17T06:20:00,axn,29.93
2023-07-17T06:21:00,axn,29.89
2023-07-17T06:22:00,axn,29.85
2023-07-17T06:23:00,axn,29.57
2023-07-17T06:24:00,axn,29.40
2023-07-17T06:25:00,axn,32.14
2023-07-17T06:26:00,axn,32.05
2023-07-17T06:27:00,axn,29.16
2023-07-17T06:28:00,axn,29.03
2023-07-17T06:29:00,axn,29.31
2023-07-17T06:30:00,axn,29.16
2023-07-17T06:31:00,axn,29.20
2023-07-17T06:32:00,axn,29.48
2023-07-17T06:33:00,axn,29.08
2023-07-17T06:34:00,axn,29.05
2023-07-17T06:35:00,axn,29.10
2023-07-17T06:36:00,axn,28.79
2023-07-17T06:37:00,axn,28.61
2023-07-17T06:38:00,axn,28.47
2023-07-17T06:39:00,axn,28.30
2023-07-17T06:40:00,axn,28.39
2023-07-17T06:41:00,axn,28.44
2023-07-17T06:42:00,axn,28.43
2023-07-17T06:43:00,axn,28.39
2023-07-17T06:44:00,axn,28.48
2023-07-17T06:45:00,axn,28.41
2023-07-17T06:46:00,axn,28.37
2023-07-17T06:47:00,axn,28.22
2023-07-17T06:48:00,axn,28.89
2023-07-17T06:49:00,axn,28.93
2023-07-17T06:50:00,axn,29.30
2023-07-17T06:51:00,axn,28.97
2023-07-17T06:52:00,axn,28.99
2023-07-17T06:53:00,axn,29.00
2023-07-17T06:54:00,axn,28.73
2023-07-17T06:55:00,axn,28.78
2023-07-17T06:56:00,axn,28.65
2023-07-17T06:57:00,axn,28.84
2023-07-17T06:58:00,axn,28.80
2023-07-17T06:59:00,axn,28.82
2023-07-17T07:00:00,axn,28.88
2023-07-17T07:01:00,axn,31.74
2023-07-17T07:02:00,axn,34.45
2023-07-17T07:03:00,axn,35.72
2023-07-17T07:04:00,axn,35.33
2023-07-17T07:05:00,axn,35.75
2023-07-17T07:06:00,axn,36.00
2023-07-17T07:07:00,axn,35.91
2023-07-17T07:08:00,axn,36.15
2023-07-17T07:09:00,axn,36.29
2023-07-17T07:10:00,axn,36.22
2023-07-17T07:11:00,axn,36.20
2023-07-17T07:12:00,axn,35.71
2023-07-17T07:13:00,axn,35.97
2023-07-17T07:14:00,axn,35.74
2023-07-17T07:15:00,axn,35.79
2023-07-17T07:16:00,axn,35.56
2023-07-17T07:17:00,axn,35.75
2023-07-17T07:18:00,axn,36.36
2023-07-17T07:19:00,axn,35.92
2023-07-17T07:20:00,axn,38.43
2023-07-17T07:21:00,axn,38.43
2023-07-17T07:22:00,axn,38.44
2023-07-17T07:23:00,axn,35.57
2023-07-17T07:24:00,axn,35.62
2023-07-17T07:25:00,axn,35.54
2023-07-17T07:26:00,axn,35.56
2023-07-17T07:27:00,axn,35.81
2023-07-17T07:28:00,axn,35.70
2023-07-17T07:29:00,axn,35.97
2023-07-17T07:30:00,axn,36.23
2023-07-17T07:31:00,axn,36.04
2023-07-17T07:32:00,axn,35.68
2023-07-17T07:33:00,axn,35.94
2023-07-17T07:34:00,axn,36.97
2023-07-17T07:35:00,axn,36.15
2023-07-17T07:36:00,axn,35.27
2023-07-17T07:37:00,axn,35.73
2023-07-17T07:38:00,axn,36.29
2023-07-17T07:39:00,axn,35.99
2023-07-17T07:40:00,axn,36.16
2023-07-17T07:41:00,axn,36.53
2023-07-17T07:42:00,axn,36.40
2023-07-17T07:43:00,axn,36.22
2023-07-17T07:44:00,axn,36.82
2023-07-17T07:45:00,axn,38.38
2023-07-17T07:46:00,axn,38.63
2023-07-17T07:47:00,axn,38.59
2023-07-17T07:48:00,axn,38.92
2023-07-17T07:49:00,axn,39.15
2023-07-17T07:50:00,axn,39.85
2023-07-17T07:51:00,axn,39.50
2023-07-17T07:52:00,axn,39.88
2023-07-17T07:53:00,axn,39.70
2023-07-17T07:54:00,axn,40.32
2023-07-17T07:55:00,axn,40.17
2023-07-17T07:56:00,axn,40.42
2023-07-17T07:57:00,axn,40.30
2023-07-17T07:58:00,axn,40.62
2023-07-17T07:59:00,axn,40.29
2023-07-17T08:00:00,axn,41.04
2023-07-17T08:01:00,axn,40.76
2023-07-17T08:02:00,axn,44.87
2023-07-17T08:03:00,axn,46.26
2023-07-17T08:04:00,axn,45.28
2023-07-17T08:05:00,axn,45.35
2023-07-17T08:06:00,axn,45.45
2023-07-17T08:07:00,axn,45.31
2023-07-17T08:08:00,axn,45.13
2023-07-17T08:09:00,axn,45.23
2023-07-17T08:10:00,axn,45.38
2023-07-17T08:11:00,axn,45.35
2023-07-17T08:12:00,axn,45.28
2023-07-17T08:13:00,axn,45.49
2023-07-17T08:14:00,axn,45.72
2023-07-17T08:15:00,axn,45.61
2023-07-17T08:16:00,axn,45.46
2023-07-17T08:17:00,axn,45.08
2023-07-17T08:18:00,axn,45.13
2023-07-17T08:19:00,axn,45.16
2023-07-17T08:20:00,axn,45.23
2023-07-17T08:21:00,axn,45.18
2023-07-17T08:22:00,axn,45.27
2023-07-17T08:23:00,axn,45.87
2023-07-17T08:24:00,axn,45.50
2023-07-17T08:25:00,axn,45.73
2023-07-17T08:26:00,axn,45.84
2023-07-17T08:27:00,axn,46.22
2023-07-17T08:28:00,axn,46.23
2023-07-17T08:29:00,axn,46.32
2023-07-17T08:30:00,axn,46.29
2023-07-17T08:31:00,axn,46.35
2023-07-17T08:32:00,axn,46.66
2023-07-17T08:33:00,axn,46.38
2023-07-17T08:34:00,axn,46.27
2023-07-17T08:35:00,axn,46.57
2023-07-17T08:36:00,axn,46.41
2023-07-17T08:37:00,axn,46.49
2023-07-17T08:38:00,axn,46.88
2023-07-17T08:39:00,axn,46.77
2023-07-17T08:40:00,axn,46.76
2023-07-17T08:41:00,axn,51.30
2023-07-17T08:42:00,axn,56.02
2023-07-17T08:43:00,axn,52.16
2023-07-17T08:44:00,axn,48.03
2023-07-17T08:45:00,axn,48.17
2023-07-17T08:46:00,axn,47.83
2023-07-17T08:47:00,axn,47.67
2023-07-17T08:48:00,axn,47.84
2023-07-17T08:49:00,axn,47.35
2023-07-17T08:50:00,axn,47.15
2023-07-17T08:51:00,axn,48.07
2023-07-17T08:52:00,axn,48.07
2023-07-17T08:53:00,axn,47.97
2023-07-17T08:54:00,axn,47.94
2023-07-17T08:55:00,axn,54.13
2023-07-17T08:56:00,axn,54.29
2023-07-17T08:57:00,axn,54.09
2023-07-17T08:58:00,axn,48.18
2023-07-17T08:59:00,axn,48.60
2023-07-17T09:00:00,axn,48.26
2023-07-17T09:01:00,axn,48.80
2023-07-17T09:02:00,axn,48.35
2023-07-17T09:03:00,axn,48.83
2023-07-17T09:04:00,axn,48.20
2023-07-17T09:05:00,axn,48.91
2023-07-17T09:06:00,axn,50.72
2023-07-17T09:07:00,axn,51.26
2023-07-17T09:08:00,axn,51.15
2023-07-17T09:09:00,axn,48.29
2023-07-17T09:10:00,axn,48.13
2023-07-17T09:11:00,axn,47.77
2023-07-17T09:12:00,axn,47.74
2023-07-17T09:13:00,axn,47.33
2023-07-17T09:14:00,axn,47.56
2023-07-17T09:15:00,axn,47.41
2023-07-17T09:16:00,axn,50.64
2023-07-17T09:17:00,axn,50.23
2023-07-17T09:18:00,axn,47.22
2023-07-17T09:19:00,axn,48.00
2023-07-17T09:20:00,axn,47.47
2023-07-17T09:21:00,axn,47.07
2023-07-17T09:22:00,axn,46.44
2023-07-17T09:23:00,axn,46.23
2023-07-17T09:24:00,axn,46.52
2023-07-17T09:25:00,axn,46.25
2023-07-17T09:26:00,axn,46.00
2023-07-17T09:27:00,axn,45.94
2023-07-17T09:28:00,axn,46.81
2023-07-17T09:29:00,axn,46.45
2023-07-17T09:30:00,axn,46.53
2023-07-17T09:31:00,axn,46.80
2023-07-17T09:32:00,axn,46.69
2023-07-17T09:33:00,axn,46.77
2023-07-17T09:34:00,axn,46.62
2023-07-17T09:35:00,axn,47.65
2023-07-17T09:36:00,axn,47.72
2023-07-17T09:37:00,axn,47.24
2023-07-17T09:38:00,axn,47.73
2023-07-17T09:39:00,axn,47.50
2023-07-17T09:40:00,axn,47.57
2023-07-17T09:41:00,axn,47.34
2023-07-17T09:42:00,axn,47.39
2023-07-17T09:43:00,axn,47.42
2023-07-17T09:44:00,axn,47.48
2023-07-17T09:45:00,axn,47.67
2023-07-17T09:46:00,axn,47.56
2023-07-17T09:47:00,axn,47.50
2023-07-17T09:48:00,axn,46.92
2023-07-17T09:49:00,axn,47.28
2023-07-17T09:50:00,axn,47.11
2023-07-17T09:51:00,axn,47.51
2023-07-17T09:52:00,axn,47.02
2023-07-17T09:53:00,axn,47.45
2023-07-17T09:54:00,axn,46.77
2023-07-17T09:55:00,axn,56.86
2023-07-17T09:56:00,axn,57.07
2023-07-17T09:57:00,axn,57.26
2023-07-17T09:58:00,axn,57.27
2023-07-17T09:59:00,axn,47.52
2023-07-17T10:00:00,axn,47.28
2023-07-17T10:01:00,axn,47.83
2023-07-17T10:02:00,axn,47.69
2023-07-17T10:03:00,axn,47.53
2023-07-17T10:04:00,axn,47.80
2023-07-17T10:05:00,axn,47.48
2023-07-17T10:06:00,axn,61.93
2023-07-17T10:07:00,axn,61.63
2023-07-17T10:08:00,axn,61.30
2023-07-17T10:09:00,axn,61.76
2023-07-17T10:10:00,axn,61.27
2023-07-17T10:11:00,axn,61.39
2023-07-17T10:12:00,axn,47.19
2023-07-17T10:13:00,axn,47.22
2023-07-17T10:14:00,axn,47.03
2023-07-17T10:15:00,axn,48.57
2023-07-17T10:16:00,axn,47.00
2023-07-17T10:17:00,axn,46.70
2023-07-17T10:18:00,axn,46.73
2023-07-17T10:19:00,axn,47.23
2023-07-17T10:20:00,axn,46.96
2023-07-17T10:21:00,axn,46.99
2023-07-17T10:22:00,axn,47.32
2023-07-17T10:23:00,axn,47.02
2023-07-17T10:24:00,axn,47.23
2023-07-17T10:25:00,axn,47.09
2023-07-17T10:26:00,axn,47.07
2023-07-17T10:27:00,axn,47.35
2023-07-17T10:28:00,axn,47.21
2023-07-17T10:29:00,axn,47.39
2023-07-17T10:30:00,axn,47.46
2023-07-17T10:31:00,axn,47.43
2023-07-17T10:32:00,axn,47.08
2023-07-17T10:33:00,axn,46.84
2023-07-17T10:34:00,axn,46.97
2023-07-17T10:35:00,axn,47.32
2023-07-17T10:36:00,axn,47.24
2023-07-17T10:37:00,axn,47.43
2023-07-17T10:38:00,axn,47.25
2023-07-17T10:39:00,axn,47.31
2023-07-17T10:40:00,axn,47.39
2023-07-17T10:41:00,axn,47.15
2023-07-17T10:42:00,axn,46.98
2023-07-17T10:43:00,axn,51.91
2023-07-17T10:44:00,axn,46.55
2023-07-17T10:45:00,axn,47.36
2023-07-17T10:46:00,axn,46.86
2023-07-17T10:47:00,axn,46.56
2023-07-17T10:48:00,axn,46.66
2023-07-17T10:49:00,axn,46.34
2023-07-17T10:50:00,axn,46.33
2023-07-17T10:51:00,axn,46.21
2023-07-17T10:52:00,axn,46.34
2023-07-17T10:53:00,axn,46.48
2023-07-17T10:54:00,axn,46.52
2023-07-17T10:55:00,axn,46.49
2023-07-17T10:56:00,axn,46.42
2023-07-17T10:57:00,axn,46.81
2023-07-17T10:58:00,axn,47.02
2023-07-17T10:59:00,axn,47.13
2023-07-17T11:00:00,axn,47.03
2023-07-17T11:01:00,axn,46.78
2023-07-17T11:02:00,axn,46.88
2023-07-17T11:03:00,axn,50.40
2023-07-17T11:04:00,axn,50.49
2023-07-17T11:05:00,axn,47.48
2023-07-17T11:06:00,axn,47.46
2023-07-17T11:07:00,axn,47.35
2023-07-17T11:08:00,axn,49.63
2023-07-17T11:09:00,axn,49.59
2023-07-17T11:10:00,axn,49.41
2023-07-17T11:11:00,axn,49.37
2023-07-17T11:12:00,axn,46.23
2023-07-17T11:13:00,axn,46.24
2023-07-17T11:14:00,axn,45.94
2023-07-17T11:15:00,axn,46.04
2023-07-17T11:16:00,axn,45.37
2023-07-17T11:17:00,axn,45.47
2023-07-17T11:18:00,axn,45.72
2023-07-17T11:19:00,axn,45.49
2023-07-17T11:20:00,axn,45.93
2023-07-17T11:21:00,axn,59.68
2023-07-17T11:22:00,axn,45.12
2023-07-17T11:23:00,axn,45.26
2023-07-17T11:24:00,axn,45.13
2023-07-17T11:25:00,axn,46.09
2023-07-17T11:26:00,axn,46.80
2023-07-17T11:27:00,axn,47.07
2023-07-17T11:28:00,axn,47.55
2023-07-17T11:29:00,axn,48.93
2023-07-17T11:30:00,axn,49.18
2023-07-17T11:31:00,axn,48.79
2023-07-17T11:32:00,axn,49.16
2023-07-17T11:33:00,axn,48.49
2023-07-17T11:34:00,axn,48.60
2023-07-17T11:35:00,axn,48.48
2023-07-17T11:36:00,axn,48.74
2023-07-17T11:37:00,axn,48.73
2023-07-17T11:38:00,axn,56.67
2023-07-17T11:39:00,axn,56.68
2023-07-17T11:40:00,axn,58.75
2023-07-17T11:41:00,axn,56.94
2023-07-17T11:42:00,axn,56.80
2023-07-17T11:43:00,axn,56.49
2023-07-17T11:44:00,axn,56.95
2023-07-17T11:45:00,axn,57.20
2023-07-17T11:46:00,axn,56.61
2023-07-17T11:47:00,axn,56.39
2023-07-17T11:48:00,axn,55.65
2023-07-17T11:49:00,axn,55.95
2023-07-17T11:50:00,axn,55.90
2023-07-17T11:51:00,axn,56.13
2023-07-17T11:52:00,axn,56.22
2023-07-17T11:53:00,axn,56.93
2023-07-17T11:54:00,axn,56.32
2023-07-17T11:55:00,axn,56.15
2023-07-17T11:56:00,axn,56.14
2023-07-17T11:57:00,axn,56.15
2023-07-17T11:58:00,axn,57.24
2023-07-17T11:59:00,axn,57.33
2023-07-17T12:00:00,axn,56.77
2023-07-17T12:01:00,axn,56.66
2023-07-17T12:02:00,axn,56.51
2023-07-17T12:03:00,axn,56.33
2023-07-17T12:04:00,axn,56.47
2023-07-17T12:05:00,axn,55.51
2023-07-17T12:06:00,axn,56.11
2023-07-17T12:07:00,axn,56.22
2023-07-17T12:08:00,axn,56.30
2023-07-17T12:09:00,axn,56.37
2023-07-17T12:10:00,axn,56.27
2023-07-17T12:11:00,axn,56.26
2023-07-17T12:12:00,axn,56.27
2023-07-17T12:13:00,axn,58.62
2023-07-17T12:14:00,axn,58.81
2023-07-17T12:15:00,axn,57.93
2023-07-17T12:16:00,axn,60.64
2023-07-17T12:17:00,axn,56.53
2023-07-17T12:18:00,axn,56.35
2023-07-17T12:19:00,axn,56.33
2023-07-17T12:20:00,axn,56.00
2023-07-17T12:21:00,axn,56.34
2023-07-17T12:22:00,axn,55.48
2023-07-17T12:23:00,axn,55.76
2023-07-17T12:24:00,axn,55.28
2023-07-17T12:25:00,axn,55.55
2023-07-17T12:26:00,axn,55.75
2023-07-17T12:27:00,axn,55.63
2023-07-17T12:28:00,axn,55.40
2023-07-17T12:29:00,axn,55.25
2023-07-17T12:30:00,axn,55.17
2023-07-17T12:31:00,axn,55.20
2023-07-17T12:32:00,axn,57.86
2023-07-17T12:33:00,axn,57.86
2023-07-17T12:34:00,axn,57.75
2023-07-17T12:35:00,axn,55.26
2023-07-17T12:36:00,axn,54.84
2023-07-17T12:37:00,axn,54.93
2023-07-17T12:38:00,axn,54.68
2023-07-17T12:39:00,axn,54.81
2023-07-17T12:40:00,axn,55.11
2023-07-17T12:41:00,axn,54.50
2023-07-17T12:42:00,axn,54.69
2023-07-17T12:43:00,axn,54.73
2023-07-17T12:44:00,axn,55.10
2023-07-17T12:45:00,axn,54.64
2023-07-17T12:46:00,axn,54.53
2023-07-17T12:47:00,axn,54.37
2023-07-17T12:48:00,axn,54.31
2023-07-17T12:49:00,axn,54.53
2023-07-17T12:50:00,axn,64.39
2023-07-17T12:51:00,axn,54.88
2023-07-17T12:52:00,axn,54.97
2023-07-17T12:53:00,axn,55.43
2023-07-17T12:54:00,axn,55.53
2023-07-17T12:55:00,axn,56.95
2023-07-17T12:56:00,axn,56.89
2023-07-17T12:57:00,axn,57.31
2023-07-17T12:58:00,axn,56.22
2023-07-17T12:59:00,axn,55.91
2023-07-17T13:00:00,axn,56.04
2023-07-17T13:01:00,axn,55.62
2023-07-17T13:02:00,axn,55.66
2023-07-17T13:03:00,axn,56.00
2023-07-17T13:04:00,axn,55.60
2023-07-17T13:05:00,axn,59.43
2023-07-17T13:06:00,axn,59.45
2023-07-17T13:07:00,axn,59.93
2023-07-17T13:08:00,axn,60.51
2023-07-17T13:09:00,axn,59.21
2023-07-17T13:10:00,axn,59.21
2023-07-17T13:11:00,axn,55.86
2023-07-17T13:12:00,axn,56.11
2023-07-17T13:13:00,axn,56.93
2023-07-17T13:14:00,axn,56.96
2023-07-17T13:15:00,axn,56.08
2023-07-17T13:16:00,axn,56.95
2023-07-17T13:17:00,axn,56.48
2023-07-17T13:18:00,axn,55.97